Location: Grabów nad Wisłą
(51.3552°N, 21.6752°E)
Time: 05:28:14
(UTC+02:00)

ISS - Visible Passes

Search period start: 28 May 2018 00:00
Search period end: 07 June 2018 00:00
Orbit: 402 x 407 km, 51.6° (Epoch: 28 May)

Date Brightness Start Highest point End Pass type
(mag) Time Alt. Az. Time Alt. Az. Time Alt. Az.
28 May -1.2 01:08:15 10° W 01:08:21 11° W 01:08:21 11° W visible
28 May -3.9 22:39:09 10° W 22:42:26 84° S 22:45:05 15° ESE visible
29 May -2.4 00:15:46 10° W 00:17:42 25° WSW 00:17:42 25° WSW visible
29 May -3.8 21:46:55 10° W 21:50:12 86° N 21:53:29 10° E visible
29 May -3.5 23:23:27 10° W 23:26:35 43° SSW 23:27:05 40° S visible
30 May -3.8 22:31:10 10° W 22:34:25 61° SSW 22:36:31 20° ESE visible
31 May -1.6 00:08:12 10° W 00:09:09 14° WSW 00:09:09 14° WSW visible
31 May -3.9 21:38:55 10° W 21:42:12 79° SSW 21:45:28 10° ESE visible
31 May -2.6 23:15:36 10° W 23:18:23 26° SSW 23:18:34 26° SSW visible
01 Jun -3.1 22:23:11 10° W 22:26:16 38° SSW 22:28:02 20° SSE visible
02 Jun -3.6 21:30:51 10° W 21:34:04 55° SSW 21:37:17 10° ESE visible
02 Jun -1.8 23:08:06 10° WSW 23:10:02 15° SW 23:10:09 15° SW visible
03 Jun -2.3 22:15:19 10° W 22:17:57 23° SW 22:19:40 15° S visible
04 Jun -2.8 21:22:49 10° W 21:25:49 33° SSW 21:28:49 10° SE visible
05 Jun -1.4 22:07:59 10° WSW 22:09:30 13° SW 22:11:00 10° SSW visible
